Regional Weather Roundup
Issued by NWS Sterling, VA

Home | Current Version | Previous Version | Graphics & Text | Print | Product List | Glossary On
Versions: 1 2 3 4 5 6 7 8 9 10 11 12 13 14 15 16 17 18 19 20 21 22 23 24 25 26 27 28
000
ASUS41 KLWX 181011
RWRLWX

REGIONAL WEATHER ROUNDUP
NATIONAL WEATHER SERVICE BALTIMORE MD/WASHINGTON DC
600 AM EDT WED OCT 18 2017

Note: "FAIR" indicates few or no clouds below 12,000 feet
with no significant weather and/or obstructions to visibility.
 TC=TEMPERATURE CELSIUS

 * =Non NWS site. Station does not report precipitation (e.g. rain,
    snow, etc.), thunder, or fog.

DCZ001-MDZ009-015-VAZ040>042-051-053>054-181100-
WASHINGTON METRO

CITY           SKY/WX    TMP DP  RH WIND       PRES   REMARKS
WASHINGTON NAT PTCLDY    48  40  73 SW3       30.36R
DULLES         CLEAR     38  37  97 CALM      30.35R
ANDREWS AFB    CLEAR     41  39  94 CALM      30.34R
FT BELVOIR     CLEAR     38  37  96 CALM      30.35S
QUANTICO       CLEAR     42  42 100 NW5       30.37R
COLLEGE PARK*  CLOUDY    39  38  96 CALM      30.35R
LEESBURG*      CLEAR     37  37 100 CALM      30.36R
MANASSAS*      CLEAR     35  34  96 CALM      30.36R
GAITHERSBURG*  CLEAR     38  37  97 CALM      30.35R

$$

MDZ006>007-011-014-181100-
BALTIMORE METRO

CITY           SKY/WX    TMP DP  RH WIND       PRES   REMARKS
BWI AIRPORT    CLEAR     39  39 100 SW3       30.34R
MD SCIENCE CTR   N/A     49  39  68 MISG      30.35R
MARTIN STATE   CLEAR     45  45 100 W3        30.36R
ANNAPOLIS      CLEAR     45  44  97 CALM      30.35R
FORT MEADE*    CLEAR     36  36 100 CALM      30.37R

$$

MDZ012-015-019>023-181100-
MARYLAND EASTERN SHORE

CITY           SKY/WX    TMP DP  RH WIND       PRES   REMARKS
OCEAN CITY     CLEAR     38  37  97 CALM      30.36R
SALISBURY      CLEAR     37  35  92 CALM      30.35R
CAMBRIDGE*     CLEAR     37  37 100 CALM      30.35R
EASTON*        CLEAR     43  41  93 CALM      30.39R

$$

MDZ017>025-181100-
SOUTHERN MARYLAND

CITY           SKY/WX    TMP DP  RH WIND       PRES   REMARKS
PATUXENT RIVER CLEAR     40  31  70 W3        30.35R
ST INIGOES     CLEAR     41  40  96 CALM      30.35R
LEONARDTOWN*   NOT AVBL

$$

MDZ003>005-181100-
NORTH CENTRAL MARYLAND

CITY           SKY/WX    TMP DP  RH WIND       PRES   REMARKS
FREDERICK*     CLEAR     39  39 100 CALM      30.38R
HAGERSTOWN APT CLEAR     43  38  82 S5        30.34R
WESTMINSTER*   CLEAR     43  37  81 CALM      30.33R

$$

MDZ501>502-181100-
WESTERN MARYLAND

CITY           SKY/WX    TMP DP  RH WIND       PRES   REMARKS
OAKLAND*       CLEAR     45  32  61 W3        30.30S
CUMBERLAND*    CLEAR     37  37 100 CALM      30.39S

$$

VAZ025>031-181100-
SHENANDOAH VALLEY

CITY           SKY/WX    TMP DP  RH WIND       PRES   REMARKS
WINCHESTER*    CLEAR     41  36  81 CALM      30.34R
FRONT ROYAL*   CLEAR     39  37  93 CALM      30.34R
LURAY*         CLEAR     37  37 100 CALM      30.36R
NEW MARKET*    CLEAR     33  33  96 CALM      30.35S
STAUNTON*      CLEAR     32  30  95 CALM      30.37S
WAYNESBORO*    CLEAR     35  35  99 SW3       30.35S

$$

WVZ021-048>050-054>055-181100-
EASTERN WEST VIRGINIA PANHANDLE

CITY           SKY/WX    TMP DP  RH WIND       PRES   REMARKS
MARTINSBURG    CLEAR     36  34  92 CALM      30.34R
PETERSBURG*    CLEAR     34  34  99 CALM      30.37R

$$

VAZ036>039-050-181100-
CENTRAL FOOTHILLS

CITY           SKY/WX    TMP DP  RH WIND       PRES   REMARKS
CHARLOTTESVILL CLEAR     38  37  97 CALM      30.35R
CULPEPER*      CLEAR     35  33  94 CALM      30.36S
ORANGE*        CLEAR     34  34 100 CALM      30.35R
GORDONSVILLE*  CLEAR     35  35 100 CALM      30.35R
WARRENTON*     CLEAR     33  31  92 CALM      30.35R FOG

$$

VAZ055>057-181100-
NORTH AND CENTRAL PIEDMONT

CITY           SKY/WX    TMP DP  RH WIND       PRES   REMARKS
FREDERICKSBRG* CLEAR     37  37 100 CALM      30.35S
STAFFORD*      CLEAR     32  32 100 CALM      30.40R

$$

NCZ024-NYZ072-PAZ021-071-VAZ022-071-181100-
OTHER REGIONAL OBSERVATIONS

CITY           SKY/WX    TMP DP  RH WIND       PRES   REMARKS
NEW YORK CITY  CLEAR     51  36  56 VRB5      30.31R
PHILADELPHIA   CLEAR     48  42  80 SW7       30.34R
PITTSBURGH     CLEAR     41  38  89 CALM      30.32R
ROANOKE        CLEAR     41  38  89 CALM      30.37S
RICHMOND       CLEAR     39  37  92 CALM      30.36R
RALEIGH        CLEAR     39  38  96 CALM      30.35R

$$

ANZ530>537-181100-
MARINE OBSERVATIONS

STATION/POSITION TIME  TEMP    WIND        PRES
                       AIR SEA DIR/SP/G
                 (UTC) (F)     (DEG/KT/KT) (MB)
THOMAS PT LIGHT  1000   52 67  270/  9/  9   N/A
BALT KEY BRIDGE  0948   50     240/  5/  5 1027.5R
COVE POINT       0948   52     300/  5/  6 1028.4R
LEWISETTA        0948   48 64  270/  5/  6 1027.7R
SOLOMONS ISLAND  0948   52 70  290/  4/  6 1027.5R
PINEY POINT      0936          280/  7/  8   N/A

$$





USA.gov is the U.S. government's official web portal to all federal, state and local government web resources and services.